Change the Weather History Date:

Thursday, March 6, 2014

  Actual Average Record
Temperature  
Mean Temperature 24 °F -  
Max Temperature 30 °F 0 °F 66 °F (2009)
Min Temperature 17 °F - -9 °F (2015)
Degree Days  
Heating Degree Days 42    
Moisture  
Dew Point 10 °F    
Average Humidity 54    
Maximum Humidity 65    
Minimum Humidity 41    
Precipitation  
Precipitation 0.00 in - - ()
Sea Level Pressure  
Sea Level Pressure 30.51 in    
Wind  
Wind Speed 6 mph (ENE)    
Max Wind Speed 10 mph    
Max Gust Speed -    
Visibility 10 miles    
Events      
Averages and records for this station are not official NWS values.
T = Trace of Precipitation, MM = Missing Value Source: NWS Daily Summary

Daily Weather History Graph

Daily Weather History Graph

Search for Another Location

Airport or City:

Trip Planner

Search our weather history database for the weather conditions in past years. The results will help you decide how hot, cold, wet, or windy it might be!

Date:

Astronomy

Mar. 06, 2014 Rise Set
Actual Time 6:33 AM EST 6:04 PM EST
Civil Twilight 6:06 AM EST 6:31 PM EST
Nautical Twilight 5:34 AM EST 7:03 PM EST
Astronomical Twilight 5:03 AM EST 7:34 PM EST
Moon 9:39 AM EST (3/6) No Moon Set
Length of Visible Light 12h 25m
Length of Day
11h 31m
Waxing Crescent, 32% of the Moon is Illuminated
Mar 6
Waxing Crescent
Mar 8
First Quarter
Mar 16
Full
Mar 23
Last Quarter
Mar 30
New

Hourly Weather History & Observations

Time (EST) Temp. Windchill Dew Point Humidity Pressure Visibility Wind Dir Wind Speed Gust Speed Precip Events Conditions
12:53 AM 21.9 °F 11.7 °F 8.1 °F 55% 30.49 in 10.0 mi North 9.2 mph - N/A   Clear
1:53 AM 19.9 °F 14.9 °F 8.1 °F 60% 30.50 in 10.0 mi North 3.5 mph - N/A   Clear
2:53 AM 19.0 °F 12.3 °F 8.1 °F 62% 30.49 in 10.0 mi North 4.6 mph - N/A   Clear
3:53 AM 19.0 °F 11.1 °F 7.0 °F 59% 30.50 in 10.0 mi NNE 5.8 mph - N/A   Clear
4:53 AM 18.0 °F 12.7 °F 7.0 °F 62% 30.51 in 10.0 mi Variable 3.5 mph - N/A   Clear
5:53 AM 18.0 °F 12.7 °F 7.0 °F 62% 30.54 in 10.0 mi North 3.5 mph - N/A   Clear
6:53 AM 17.1 °F 11.7 °F 7.0 °F 65% 30.55 in 10.0 mi North 3.5 mph - N/A   Clear
7:53 AM 19.0 °F 13.9 °F 9.0 °F 65% 30.59 in 10.0 mi NE 3.5 mph - N/A   Clear
8:53 AM 21.0 °F 11.4 °F 10.0 °F 63% 30.61 in 10.0 mi ENE 8.1 mph - N/A   Clear
9:53 AM 23.0 °F 12.4 °F 10.0 °F 58% 30.61 in 10.0 mi ENE 10.4 mph - N/A   Clear
10:53 AM 25.0 °F 17.1 °F 9.0 °F 51% 30.59 in 10.0 mi East 6.9 mph - N/A   Clear
11:53 AM 26.1 °F 17.6 °F 8.1 °F 47% 30.58 in 10.0 mi ESE 8.1 mph - N/A   Clear
12:53 PM 28.0 °F 20.0 °F 9.0 °F 45% 30.55 in 10.0 mi ENE 8.1 mph - N/A   Clear
1:53 PM 28.9 °F 22.8 °F 9.0 °F 43% 30.50 in 10.0 mi ESE 5.8 mph - N/A   Clear
2:53 PM 30.0 °F 24.1 °F 9.0 °F 41% 30.49 in 10.0 mi Variable 5.8 mph - N/A   Clear
3:53 PM 30.0 °F 24.1 °F 12.0 °F 47% 30.48 in 10.0 mi East 5.8 mph - N/A   Clear
4:53 PM 30.0 °F 22.4 °F 10.0 °F 43% 30.49 in 10.0 mi East 8.1 mph - N/A   Clear
5:53 PM 28.9 °F 20.4 °F 10.0 °F 45% 30.48 in 10.0 mi East 9.2 mph - N/A   Clear
6:53 PM 28.0 °F 20.0 °F 9.0 °F 45% 30.49 in 10.0 mi ESE 8.1 mph - N/A   Clear
7:53 PM 27.0 °F 20.5 °F 10.9 °F 51% 30.49 in 10.0 mi East 5.8 mph - N/A   Clear
8:53 PM 27.0 °F 19.5 °F 12.0 °F 53% 30.46 in 10.0 mi East 6.9 mph - N/A   Clear
9:53 PM 27.0 °F 20.5 °F 12.0 °F 53% 30.45 in 10.0 mi East 5.8 mph - N/A   Clear
10:53 PM 27.0 °F 20.5 °F 12.0 °F 53% 30.45 in 10.0 mi East 5.8 mph - N/A   Clear
11:53 PM 26.1 °F 18.4 °F 15.1 °F 63% 30.42 in 10.0 mi East 6.9 mph - N/A   Clear